Regional Weather Roundup
Issued by NWS

Home | Current Version | Previous Version | Text Only | Print | Product List | Glossary On
Versions: 1 2 3 4 5 6 7 8 9 10 11 12 13 14 15 16 17 18 19 20 21 22 23 24 25 26 27 28 29 30 31 32 33 34 35 36 37 38 39 40 41 42 43 44 45 46 47 48 49 50
000
ASUS43 KOAX 201102
RWRNE

WEATHER ROUNDUP FOR NEBRASKA
NATIONAL WEATHER SERVICE OMAHA NE
500 AM CST MON FEB 20 2017

NOTES: SATELLITE DATA IS BEING USED TO AUGMENT CLOUD COVER ABOVE
       12000 FEET.
       "FAIR" INDICATES FEW OR NO CLOUDS BELOW 12,000 FEET WITH NO
       SIGNIFICANT WEATHER AND/OR OBSTRUCTIONS TO VISIBILITY.

  * THESE STATIONS DO NOT REPORT WEATHER SUCH AS RAIN...SNOW OR FOG.

NEZ001>004-019>022-054>056-201200-
NEBRASKA PANHANDLE

CITY           SKY/WX    TMP DP  RH WIND       PRES   REMARKS
SCOTTSBLUFF    PTCLDY    40  25  55 W13       29.79R WCI  32
ALLIANCE       PTCLDY    45  19  35 NW25G36   29.73R
CHADRON        MOCLDY    46  36  68 W20       29.74R
KIMBALL        CLEAR     40  21  46 W23G31    29.82R WCI  30
SIDNEY         CLOUDY    44  22  41 NW21G29   29.79R
$$

NEZ057>060-069>072-079>082-201200-
SOUTHWEST NEBRASKA

CITY           SKY/WX    TMP DP  RH WIND       PRES   REMARKS
NORTH PLATTE   CLOUDY    47  39  74 W9        29.70R
IMPERIAL       MOCLDY    47  33  58 NW13      29.74R
LEXINGTON      MOCLDY    50  48  93 S7        29.70R FOG
MCCOOK         MOCLDY    48  37  65 W8        29.70R
OGALLALA       CLOUDY    52  33  47 W22G28    29.73R
$$

NEZ005>010-023>029-035>040-094-201200-
NORTH CENTRAL NEBRASKA

CITY           SKY/WX    TMP DP  RH WIND       PRES   REMARKS
VALENTINE      CLOUDY    45  38  76 W7        29.61R
AINSWORTH      MOCLDY    50  49  97 SW13      29.63R
BROKEN BOW     CLOUDY    50  49  96 E7        29.67R FOG
O`NEILL        CLOUDY    55  53  95 S12       29.65S FOG
ORD            CLOUDY    55  51  86 S13       29.67R FOG
THEDFORD       MOCLDY    48  43  82 SW7       29.66R
$$

NEZ041-046>049-061>064-073>077-083>087-201200-
SOUTH CENTRAL NEBRASKA

CITY           SKY/WX    TMP DP  RH WIND       PRES   REMARKS
GRAND ISLAND   CLOUDY    56  55  97 S12       29.73R
AURORA         CLOUDY    55  55  97 S7        29.73R
HASTINGS       CLOUDY    57  54  89 S9        29.73R
HEBRON         CLOUDY    58  56  92 S8        29.75R
HOLDREGE       MOCLDY    53  52  97 S10       29.70R FOG
KEARNEY *      MOCLDY    55  52  88 S12       29.71R
YORK           CLOUDY    57  57 100 S7        29.74R
$$

NEZ011>018-030>034-042>045-201200-
NORTHEAST NEBRASKA

CITY           SKY/WX    TMP DP  RH WIND       PRES   REMARKS
NORFOLK        CLOUDY    56  53  90 S13       29.69F
ALBION         CLOUDY    56  54  90 S14       29.70F FOG
BLAIR          RAIN      59  56  91 S10       29.76S
FREMONT        LGT RAIN  57  55  95 SE8       29.75R
TEKAMAH        CLOUDY    55  52  89 SE15      29.75S
WAYNE          CLOUDY    54  53  97 S10       29.71S
$$

NEZ050>053-065>068-078-088>093-201200-
SOUTHEAST NEBRASKA

CITY           SKY/WX    TMP DP  RH WIND       PRES   REMARKS
LINCOLN        LGT RAIN  59  57  93 S3        29.75R
OMAHA EPPLEY   RAIN      59  54  83 S14       29.75R
BEATRICE       LGT RAIN  60  58  94 S9        29.75R
FALLS CITY     LGT RAIN  58  58 100 SE9       29.75F
NEBRASKA CITY  RAIN      57  56  99 SE14G20   29.76F
PLATTSMOUTH    LGT RAIN  56  54  90 SE18      29.76F
$$

NEZ044-045-051>053-067-201200-
OMAHA AREA

CITY           SKY/WX    TMP DP  RH WIND       PRES   REMARKS
OMAHA EPPLEY   RAIN      59  54  83 S14       29.75R
BLAIR          RAIN      59  56  91 S10       29.76S
FREMONT        LGT RAIN  57  55  95 SE8       29.75R
MILLARD        LGT RAIN  62  60  92 S10       29.76S
OFFUTT AFB     RAIN      72  72 100 S7        29.77R FOG
PLATTSMOUTH    LGT RAIN  56  54  90 SE18      29.76F
WAHOO          LGT RAIN  55  53  94 SE7       29.75R
$$




USA.gov is the U.S. government's official web portal to all federal, state and local government web resources and services.